West Palm Beach, FL

4:47 PM EDT on October 16, 2019 (GMT -0400)
Palm Beach International

Weather History for KPBI - May, 2019

Change the Weather History Date:

Saturday, May 25, 2019

  Actual Average Record
Temperature  
Mean Temperature 80 °F 80 °F  
Max Temperature 85 °F 87 °F 96 °F (1949)
Min Temperature 75 °F 73 °F 62 °F (1928)
Degree Days  
Heating Degree Days 0 0  
Month to date heating degree days 0 0  
Since 1 July heating degree days 144 233  
Cooling Degree Days 15 15  
Month to date cooling degree days 369 322  
Year to date cooling degree days 1294 1017  
Growing Degree Days 30 (Base 50)    
Moisture  
Dew Point 66 °F    
Average Humidity 65    
Maximum Humidity 74    
Minimum Humidity 55    
Precipitation  
Precipitation 0.00 in 0.20 in 1.14 in (2018)
Month to date precipitation 5.29 3.20  
Year to date precipitation 21.01 17.40  
Snow  
Snow 0.00 in - - ()
Month to date snowfall 0.0  
Since 1 July snowfall 0.0  
Snow Depth 0.00 in    
Sea Level Pressure  
Sea Level Pressure 30.10 in    
Wind  
Wind Speed 14 mph (ENE)    
Max Wind Speed 21 mph    
Max Gust Speed 27 mph    
Visibility 10 miles    
Events      
T = Trace of Precipitation, MM = Missing Value Source: NWS Daily Summary

Daily Weather History Graph

Daily Weather History Graph

Search for Another Location

Airport or City:

Astronomy

May. 25, 2019 Rise Set
Actual Time 6:28 AM EDT 8:06 PM EDT
Civil Twilight 6:03 AM EDT 8:31 PM EDT
Nautical Twilight 5:32 AM EDT 9:02 PM EDT
Astronomical Twilight 5:00 AM EDT 9:34 PM EDT
Moon 1:11 AM EDT (5/25) 12:19 PM EDT (5/25)
Length of Visible Light 14h 28m
Length of Day
13h 37m
Waning Gibbous, 60% of the Moon is Illuminated
May 25
Waning Gibbous
May 26
Last Quarter
Jun 3
New
Jun 10
First Quarter
Jun 17
Full

Hourly Weather History & Observations

Time (EDT) Temp. Heat Index Dew Point Humidity Pressure Visibility Wind Dir Wind Speed Gust Speed Precip Events Conditions
12:53 AM 78.1 °F - 63.0 °F 60% 30.12 in 10.0 mi East 11.5 mph 18.4 mph N/A   Scattered Clouds
1:53 AM 77.0 °F - 64.0 °F 64% 30.09 in 10.0 mi East 9.2 mph - N/A   Scattered Clouds
2:53 AM 77.0 °F - 63.0 °F 62% 30.07 in 10.0 mi East 11.5 mph - N/A   Scattered Clouds
3:53 AM 77.0 °F - 63.0 °F 62% 30.06 in 10.0 mi East 15.0 mph - N/A   Scattered Clouds
4:53 AM 75.9 °F - 66.0 °F 71% 30.05 in 10.0 mi East 9.2 mph - N/A   Scattered Clouds
5:53 AM 75.9 °F - 66.0 °F 71% 30.06 in 10.0 mi East 9.2 mph - N/A   Scattered Clouds
6:53 AM 75.9 °F - 64.9 °F 69% 30.07 in 10.0 mi East 9.2 mph - N/A   Scattered Clouds
7:53 AM 75.9 °F - 64.9 °F 69% 30.09 in 10.0 mi East 12.7 mph - N/A   Scattered Clouds
8:53 AM 75.9 °F - 64.9 °F 69% 30.10 in 10.0 mi East 12.7 mph - N/A   Scattered Clouds
9:53 AM 75.9 °F - 64.9 °F 69% 30.12 in 10.0 mi East 13.8 mph - N/A   Scattered Clouds
10:53 AM 75.9 °F - 64.9 °F 69% 30.12 in 10.0 mi ENE 12.7 mph - N/A   Scattered Clouds
11:53 AM 82.4 °F 84.1 °F 64.9 °F 55% 30.12 in 10.0 mi East 15.0 mph - N/A   Mostly Cloudy
12:53 PM 84.9 °F 87.1 °F 66.0 °F 53% 30.12 in 10.0 mi ENE 15.0 mph - N/A   Scattered Clouds
1:53 PM 84.0 °F 87.0 °F 68.0 °F 58% 30.12 in 10.0 mi East 15.0 mph - N/A   Scattered Clouds
2:53 PM 82.9 °F 85.8 °F 68.0 °F 60% 30.11 in 10.0 mi East 15.0 mph - N/A   Scattered Clouds
3:53 PM 82.9 °F 85.8 °F 68.0 °F 60% 30.10 in 10.0 mi East 16.1 mph - N/A   Scattered Clouds
4:53 PM 82.9 °F 85.8 °F 68.0 °F 60% 30.09 in 10.0 mi NE 15.0 mph - N/A   Scattered Clouds
5:53 PM 82.9 °F 85.4 °F 66.9 °F 58% 30.09 in 10.0 mi NE 16.1 mph 24.2 mph N/A   Scattered Clouds
6:53 PM 81.0 °F 83.3 °F 66.9 °F 62% 30.09 in 10.0 mi ENE 19.6 mph - N/A   Scattered Clouds
7:53 PM 80.1 °F 82.3 °F 66.9 °F 64% 30.10 in 10.0 mi East 18.4 mph 25.3 mph N/A   Scattered Clouds
8:53 PM 80.1 °F 82.1 °F 66.0 °F 62% 30.11 in 10.0 mi ENE 12.7 mph 21.9 mph N/A   Partly Cloudy
9:53 PM 80.1 °F 82.1 °F 66.0 °F 62% 30.12 in 10.0 mi East 15.0 mph - N/A   Scattered Clouds
10:53 PM 80.1 °F 82.1 °F 66.0 °F 62% 30.14 in 10.0 mi East 17.3 mph - N/A   Partly Cloudy
11:53 PM 79.0 °F - 66.9 °F 66% 30.14 in 10.0 mi East 13.8 mph - N/A   Scattered Clouds